When you browse on this site, cookies collect data to enhance your experience and personalize the content and advertising you see.
Visit our Privacy Policy to learn more. By continuing to use the site, you agree to this use of cookies and data.
  • In Hungary
  • List of Countries
  • For 7 days
  • Water Temperature
  • Weather Map
  • News
  • Weather Widgets
  • user-avatar
    Login

    Hourly Weather Teteya

    Today, 19 August, Monday

    Time Temperature Precipitation Wind Pressure Humidity
    00:00 +13°C° 0.1 mm 1 mps 732 mmHg 94%
    01:00 +13°C° 0 mm 1 mps 732 mmHg 93%
    02:00 +13°C° 0.1 mm 1 mps 732 mmHg 93%
    03:00 +13°C° 0.1 mm 1 mps 732 mmHg 92%
    04:00 +13°C° 0.1 mm 1 mps 732 mmHg 92%
    05:00 +13°C° 0.1 mm 1 mps 732 mmHg 92%
    06:00 +13°C° 0.1 mm 2 mps 733 mmHg 92%
    07:00 +13°C° 0.1 mm 2 mps 733 mmHg 92%
    08:00 +14°C° 0 mm 2 mps 733 mmHg 88%
    09:00 +15°C° 0 mm 1 mps 733 mmHg 85%
    10:00 +16°C° 0 mm 1 mps 733 mmHg 81%
    11:00 +18°C° 0.3 mm 1 mps 733 mmHg 76%
    12:00 +20°C° 0.3 mm 1 mps 733 mmHg 71%
    13:00 +21°C° 0.3 mm 1 mps 733 mmHg 65%
    14:00 +21°C° 0.4 mm 1 mps 733 mmHg 64%
    15:00 +21°C° 0.4 mm 1 mps 733 mmHg 63%
    16:00 +21°C° 0.4 mm 1 mps 733 mmHg 62%
    17:00 +20°C° 0.3 mm 1 mps 733 mmHg 68%
    18:00 +19°C° 0.3 mm 1 mps 733 mmHg 74%
    19:00 +16°C° 0.3 mm 0 mps 733 mmHg 80%
    20:00 +14°C° 0.1 mm 0 mps 733 mmHg 83%
    21:00 +13°C° 0.1 mm 0 mps 733 mmHg 86%
    22:00 +12°C° 0.1 mm 0 mps 733 mmHg 89%
    23:00 +11°C° 0 mm 0 mps 733 mmHg 89%

    Tomorrow, 20 August, Tuesday

    Time Temperature Precipitation Wind Pressure Humidity
    00:00 +12°C° 0 mm 1 mps 733 mmHg 90%
    01:00 +12°C° 0 mm 1 mps 733 mmHg 91%
    02:00 +12°C° 0 mm 1 mps 733 mmHg 91%
    03:00 +12°C° 0 mm 1 mps 733 mmHg 91%
    04:00 +11°C° 0 mm 1 mps 733 mmHg 91%
    05:00 +12°C° 0 mm 1 mps 733 mmHg 87%
    06:00 +13°C° 0 mm 1 mps 733 mmHg 84%
    07:00 +14°C° 0 mm 1 mps 733 mmHg 80%
    08:00 +16°C° 0 mm 2 mps 733 mmHg 71%
    09:00 +17°C° 0 mm 2 mps 733 mmHg 63%
    10:00 +19°C° 0 mm 2 mps 733 mmHg 55%
    11:00 +20°C° 0 mm 2 mps 733 mmHg 50%
    12:00 +21°C° 0 mm 2 mps 733 mmHg 46%
    13:00 +23°C° 0 mm 2 mps 733 mmHg 41%
    14:00 +21°C° 0 mm 3 mps 733 mmHg 43%
    15:00 +21°C° 0 mm 3 mps 733 mmHg 45%
    16:00 +21°C° 0 mm 4 mps 733 mmHg 46%
    17:00 +19°C° 0.1 mm 3 mps 733 mmHg 57%
    18:00 +17°C° 0.1 mm 2 mps 733 mmHg 67%
    19:00 +15°C° 0.1 mm 2 mps 733 mmHg 77%
    20:00 +14°C° 0 mm 1 mps 733 mmHg 82%
    21:00 +13°C° 0 mm 1 mps 733 mmHg 86%
    22:00 +11°C° 0 mm 1 mps 733 mmHg 91%
    23:00 +11°C° 0 mm 1 mps 733 mmHg 92%

    Day after tomorrow, 21 August, Wednesday

    Time Temperature Precipitation Wind Pressure Humidity
    00:00 +11°C° 0 mm 1 mps 733 mmHg 93%
    01:00 +10°C° 0 mm 1 mps 733 mmHg 94%
    02:00 +10°C° 0 mm 1 mps 734 mmHg 94%
    03:00 +10°C° 0 mm 1 mps 734 mmHg 95%
    04:00 +9°C° 0 mm 1 mps 734 mmHg 96%
    05:00 +9°C° 0 mm 2 mps 734 mmHg 93%
    06:00 +10°C° 0 mm 2 mps 734 mmHg 90%
    07:00 +12°C° 0 mm 2 mps 734 mmHg 86%
    08:00 +12°C° 0 mm 2 mps 734 mmHg 86%
    09:00 +13°C° 0 mm 2 mps 733 mmHg 85%
    10:00 +12°C° 0 mm 3 mps 733 mmHg 84%
    11:00 +13°C° 0.1 mm 3 mps 733 mmHg 80%
    12:00 +14°C° 0.1 mm 3 mps 733 mmHg 76%
    13:00 +16°C° 0.1 mm 3 mps 733 mmHg 72%
    14:00 +17°C° 0 mm 3 mps 733 mmHg 68%
    15:00 +18°C° 0 mm 3 mps 733 mmHg 65%
    16:00 +18°C° 0 mm 3 mps 733 mmHg 62%
    17:00 +17°C° 0.1 mm 3 mps 733 mmHg 69%
    18:00 +16°C° 0.1 mm 2 mps 733 mmHg 75%
    19:00 +15°C° 0.1 mm 2 mps 733 mmHg 81%
    20:00 +14°C° 0 mm 2 mps 733 mmHg 86%
    21:00 +13°C° 0 mm 2 mps 732 mmHg 90%
    22:00 +10°C° 0 mm 2 mps 732 mmHg 94%
    23:00 +10°C° 0 mm 2 mps 732 mmHg 95%

    22 August, Thursday

    Time Temperature Precipitation Wind Pressure Humidity
    00:00 +11°C° 0 mm 1 mps 732 mmHg 95%
    01:00 +10°C° 0 mm 1 mps 732 mmHg 95%
    02:00 +10°C° 0 mm 1 mps 732 mmHg 96%
    03:00 +10°C° 0 mm 1 mps 732 mmHg 96%
    04:00 +9°C° 0 mm 1 mps 732 mmHg 96%
    05:00 +10°C° 0 mm 1 mps 732 mmHg 94%
    06:00 +11°C° 0 mm 1 mps 732 mmHg 91%
    07:00 +13°C° 0 mm 2 mps 732 mmHg 89%
    08:00 +14°C° 0 mm 2 mps 732 mmHg 83%
    09:00 +15°C° 0 mm 2 mps 732 mmHg 78%
    10:00 +17°C° 0 mm 2 mps 732 mmHg 72%
    11:00 +17°C° 0.1 mm 2 mps 732 mmHg 73%
    12:00 +17°C° 0.1 mm 3 mps 732 mmHg 74%
    13:00 +16°C° 0.1 mm 3 mps 732 mmHg 75%
    14:00 +16°C° 0 mm 3 mps 732 mmHg 74%
    15:00 +16°C° 0 mm 3 mps 731 mmHg 73%
    16:00 +16°C° 0 mm 2 mps 731 mmHg 72%
    17:00 +16°C° 0 mm 2 mps 731 mmHg 76%
    18:00 +15°C° 0 mm 2 mps 731 mmHg 80%
    19:00 +14°C° 0 mm 1 mps 732 mmHg 84%
    20:00 +13°C° 0 mm 1 mps 732 mmHg 87%
    21:00 +12°C° 0 mm 1 mps 732 mmHg 90%
    22:00 +11°C° 0 mm 1 mps 732 mmHg 94%
    23:00 +11°C° 0 mm 1 mps 732 mmHg 94%

    23 August, Friday

    Time Temperature Precipitation Wind Pressure Humidity
    00:00 +10°C° 0 mm 1 mps 732 mmHg 94%
    01:00 +9°C° 0 mm 0 mps 731 mmHg 94%
    02:00 +9°C° 0 mm 1 mps 731 mmHg 94%
    03:00 +9°C° 0 mm 1 mps 731 mmHg 94%
    04:00 +9°C° 0 mm 1 mps 731 mmHg 95%
    05:00 +10°C° 0 mm 1 mps 731 mmHg 91%
    06:00 +11°C° 0 mm 1 mps 732 mmHg 88%
    07:00 +13°C° 0 mm 1 mps 732 mmHg 85%
    08:00 +14°C° 0 mm 1 mps 732 mmHg 77%
    09:00 +16°C° 0 mm 2 mps 731 mmHg 70%
    10:00 +18°C° 0 mm 2 mps 731 mmHg 62%
    11:00 +18°C° 0 mm 2 mps 731 mmHg 61%
    12:00 +18°C° 0 mm 2 mps 731 mmHg 59%
    13:00 +19°C° 0 mm 2 mps 731 mmHg 57%
    14:00 +19°C° 0 mm 2 mps 730 mmHg 57%
    15:00 +19°C° 0 mm 2 mps 730 mmHg 56%
    16:00 +19°C° 0 mm 2 mps 730 mmHg 55%
    17:00 +18°C° 0 mm 2 mps 730 mmHg 62%
    18:00 +17°C° 0 mm 2 mps 730 mmHg 69%
    19:00 +15°C° 0 mm 2 mps 730 mmHg 76%
    20:00 +14°C° 0 mm 2 mps 730 mmHg 79%
    21:00 +13°C° 0 mm 2 mps 730 mmHg 83%
    22:00 +12°C° 0 mm 2 mps 730 mmHg 86%
    23:00 +12°C° 0 mm 2 mps 729 mmHg 88%

    24 August, Saturday

    Time Temperature Precipitation Wind Pressure Humidity
    00:00 +10°C° 0 mm 2 mps 729 mmHg 91%
    01:00 +10°C° 0 mm 2 mps 729 mmHg 93%
    02:00 +9°C° 0 mm 2 mps 729 mmHg 93%
    03:00 +9°C° 0 mm 2 mps 729 mmHg 94%
    04:00 +9°C° 0 mm 2 mps 728 mmHg 94%
    05:00 +10°C° 0 mm 3 mps 728 mmHg 89%
    06:00 +11°C° 0 mm 3 mps 728 mmHg 85%
    07:00 +12°C° 0 mm 4 mps 728 mmHg 80%
    08:00 +13°C° 0 mm 3 mps 728 mmHg 76%
    09:00 +16°C° 0 mm 3 mps 727 mmHg 73%
    10:00 +17°C° 0 mm 3 mps 727 mmHg 69%
    11:00 +16°C° 0.9 mm 3 mps 727 mmHg 75%
    12:00 +16°C° 0.9 mm 3 mps 726 mmHg 81%
    13:00 +14°C° 0.9 mm 3 mps 726 mmHg 88%
    14:00 +14°C° 0.6 mm 3 mps 726 mmHg 88%
    15:00 +13°C° 0.6 mm 4 mps 726 mmHg 89%
    16:00 +13°C° 0.6 mm 4 mps 726 mmHg 90%
    17:00 +13°C° 0.2 mm 4 mps 726 mmHg 90%
    18:00 +13°C° 0.2 mm 5 mps 726 mmHg 91%
    19:00 +13°C° 0.2 mm 5 mps 726 mmHg 92%
    20:00 +13°C° 0.6 mm 4 mps 726 mmHg 93%
    21:00 +13°C° 0.6 mm 4 mps 725 mmHg 94%
    22:00 +13°C° 0.6 mm 4 mps 725 mmHg 95%
    23:00 +13°C° 0.3 mm 3 mps 725 mmHg 95%
    Show more